Regional Weather Roundup
Issued by NWS

Home | Current Version | Previous Version | Text Only | Print | Product List | Glossary Off
Versions: 1 2 3 4 5 6 7 8 9 10 11 12 13 14 15 16 17 18 19 20 21 22 23 24 25 26 27 28 29 30 31 32 33 34 35 36 37 38 39 40 41 42 43 44 45 46 47 48 49 50

000
ASUS45 KTFX 011619
RWRMT
MONTANA HOURLY WEATHER ROUNDUP
NATIONAL WEATHER SERVICE GREAT FALLS MT
1019 AM MDT FRI AUG 1 2014

NOTE: "FAIR" INDICATES FEW OR NO CLOUDS BELOW 12000 FEET WITH NO
SIGNIFICANT WEATHER AND/OR OBSTRUCTIONS TO VISIBILITY.

* THESE STATIONS ARE NOT UNDER NWS QUALITY CONTROL. THEY DO NOT
   REPORT WEATHER SUCH AS PRECIPITATION OR FOG.

MTZ001>007-043-011700-
WEST OF THE DIVIDE
CITY           SKY/WX    TMP DP  RH WIND       PRES   REMARKS
KALISPELL      PTSUNNY   75  52  45 NE9       30.13S
MISSOULA       PTCLDY    70  45  41 SE3       30.18S
BUTTE          SUNNY     70  43  38 N3        30.30S
MULLAN PASS    PTSUNNY   73  39  29 CALM      30.30R
* ESSEX        N/A      N/A N/A N/A N/A        N/A
* LINCOLN      N/A       56  47  72 E2         N/A
* LOOKOUT PASS N/A       68  45  44 SE6        N/A
* POLSON       N/A       73  52  48 E1         N/A
* RONAN APT    PTSUNNY   73  54  51 N/A        N/A
* SEELEY LAKE  N/A       68  45  44 NE2        N/A
* THOMP F APT  CLOUDY    70  43  38 NW3G8      N/A
$$

MTZ008-052>055-011700-
SOUTHWEST MONTANA
CITY           SKY/WX    TMP DP  RH WIND       PRES   REMARKS
BOZEMAN        PTCLDY    72  45  38 CALM      30.24S
DILLON         SUNNY     66  46  49 W5        30.27S
W YELLOWSTONE  SUNNY     63  45  52 CALM      30.36F
* THREE FORKS  PTCLDY    70  54  57 N/A        N/A
* BOULDER HILL N/A       71  42  35 E2         N/A
* MONIDA PASS  N/A       61  44  54 W2         N/A
* RAYNOLDS PAS N/A       65  65 100 VRB2       N/A
* WHITEHALL    N/A       67  47  49 S4         N/A
* WISE RIVER   N/A       62  45  54 NE3        N/A
$$

MTZ009>010-012-014-046-048-049-054-011700-
EAST SLOPES AND CENTRAL MONTANA
CITY           SKY/WX    TMP DP  RH WIND       PRES   REMARKS
CUT BANK       PTCLDY    73  57  57 N14       30.24S
GREAT FALLS    PTCLDY    70  52  53 W6        30.21R
HELENA         PTCLDY    70  43  38 CALM      30.22R
MALMSTROM AFB  PTCLDY    70  52  53 NW7       30.21R
* CONRAD       PTCLDY    72  61  68 NW9        N/A
* DEARBORN     N/A       71  44  38 NE4        N/A
* EAST GLACIER N/A       69  55  61 NE4        N/A
* MONARCH      N/A       73  46  38 S2         N/A
* PENDROY      N/A       70  59  68 N12        N/A
* ROGERS PASS  N/A       70  44  39 S3G8       N/A
* SAINT MARY   N/A       65  58  78 NW2        N/A
* SWEET GRASS  N/A       68  61  78 N13G18     N/A
* WHITE SULPH  N/A       68  46  45 W3         N/A
$$

MTZ011-013-016-021-035-040-045-047-050-051-011700-
NORTH CENTRAL MONTANA
CITY           SKY/WX    TMP DP  RH WIND       PRES   REMARKS
HAVRE          SUNNY     75  54  48 NE3       30.14S
LEWISTOWN      PTCLDY    77  45  32 W6        30.21S
* FORT BENTON  PTCLDY    77  48  36 W3        30.17S
* CHESTER      N/A       79  50  36 NE8G13     N/A
* DENTON       N/A       79  51  38 N/A        N/A
* GEYSER       N/A       81  50  34 W6G12      N/A
* JUDITH GAP   N/A       76  50  40 N9G14      N/A
* LOMA         N/A       72  47  41 W5         N/A
$$

MTZ017>020-022>027-061-062-011700-
NORTHEAST MONTANA
CITY           SKY/WX    TMP DP  RH WIND       PRES   REMARKS
GLASGOW        SUNNY     79  55  44 N3        30.09R
GLENDIVE       PTCLDY    75  54  48 NE14      30.09R
JORDAN         SUNNY     81  54  39 N6        30.09S
SIDNEY         PTSUNNY   68  57  68 NE13G22   30.11R
WOLF POINT     PTCLDY    79  57  47 NE9       30.08R
* CIRCLE       N/A       76  59  56 NE12       N/A
* NAVAJO       N/A       68  57  68 SE5        N/A
$$

MTZ028>042-056>058-011700-
SOUTHCENTRAL AND SOUTHEAST MONTANA
CITY           SKY/WX    TMP DP  RH WIND       PRES   REMARKS
BAKER          PTCLDY    79  46  31 NW9       30.08S
BILLINGS       PTCLDY    75  48  39 SW10      30.16F
LIVINGSTON     SUNNY     73  45  37 NW8       30.24S
MILES CITY     SUNNY     82  50  33 E6        30.06S
* LAUREL APT   SUNNY     73  46  38 N/A        N/A
* ROUNDUP APT  PTCLDY    82  41  23 N8         N/A
* ALZADA       N/A       83  45  26 SW8G13     N/A
* HYSHAM       N/A       79  47  32 NW4        N/A
* REED POINT   N/A       75  49  40 W8         N/A
* ROSCOE HILL  N/A       76  39  26 N3G8       N/A
$$

REGIONAL REPORTS...DAKOTAS
CITY           SKY/WX    TMP DP  RH WIND       PRES   REMARKS
WILLISTON      LGT RAIN  66  61  84 E14       30.07F
DICKINSON      PTCLDY    75  59  58 NE9       30.06S
CROSBY         N/A       68  64  87 SE7       30.10F
TIOGA          SUNNY     75  57  54 N3        30.16R
WATFORD CITY   SUNNY     75  57  54 E10       30.08R
BISMARCK       SUNNY     79  57  47 S6        30.08S
GRAND FORKS    SUNNY     75  59  58 N6        30.07R
FARGO          SUNNY     77  63  62 NE5       30.07R
BUFFALO SD     PTCLDY    79  52  39 CALM      30.02S
RAPID CITY     SUNNY     82  55  40 SE5       30.10S HI  81
$$

REGIONAL REPORTS...WYOMING/IDAHO/WASHINGTON
CITY           SKY/WX    TMP DP  RH WIND       PRES   REMARKS
GILLETTE       PTCLDY    77  45  32 SW8       30.18S
SHERIDAN       PTCLDY    82  45  27 N6        30.17R
CODY           SUNNY     75  45  34 NE7       30.25S
YELLOWSTONE LA SUNNY     55  45  69 E3        30.45S
SALMON         PTSUNNY   68  46  45 CALM      30.18F
MULLAN PASS    PTSUNNY   73  39  29 CALM      30.30S
SAND POINT     PTSUNNY   68  52  57 CALM      30.08S
SPOKANE        CLOUDY    75  48  39 NE8       30.06S
$$

REGIONAL REPORTS...ALBERTA
CITY           SKY/WX    TMP DP  RH WIND       PRES   REMARKS
CALGARY        PTSUNNY   66  55  68 NW12      30.26F
LETHBRIDGE     PTCLDY    68  55  63 N5        30.24S
MEDICINE HAT   PTCLDY    72  57  59 N8        30.19R
EDMONTON       PTCLDY    66  59  78 N3        30.24S
WATERTON GATE  N/A       70  54  57 NE3        N/A
CARDSTON       N/A       66  54  65 N6         N/A
MILK RIVER     N/A       70  57  64 N10        N/A
$$

REGIONAL REPORTS...SASKATCHEWAN
CITY           SKY/WX    TMP DP  RH WIND       PRES   REMARKS
SWIFT CURRENT  SUNNY     72  57  59 N9        30.14F
MOOSE JAW      PTCLDY    77  63  62 CALM      30.09F
REGINA         SUNNY     75  59  58 SE8       30.11R
VAL MARIE      N/A       73  57  57 N3         N/A
ASSINIBOIA     N/A       75  52  45 W6         N/A
CORONACH       N/A       77  57  50 N7         N/A

$$




USA.gov is the U.S. government's official web portal to all federal, state and local government web resources and services.